DLH6VN EDDN-EDDF

Flight info

Callsign DLH6VN
Flight time 0h 25m
Altitude 20000
Route SUKAD1G SUKAD DCT PIWAW T159 SPESA SPESA5B
Aircraft A319/M-SDE3FGHIRWY/LB1

Departure

Time 2026-04-19 03:09
Airport Nuremberg Airport (EDDN)

Arrival

Time 2026-04-19 03:34
Airport Frankfurt Main Airport (EDDF)
Time Latitude Longitude Altitude Speed Heading
2026-04-19 02:42 49.49537 11.07585 1026 ft 0 kts 188°
2026-04-19 02:59 49.49550 11.07588 1046 ft 4 kts 185°
2026-04-19 02:59 49.49577 11.07588 1026 ft 4 kts 170°
2026-04-19 02:59 49.49600 11.07575 1025 ft 4 kts 129°
2026-04-19 02:59 49.49607 11.07555 1024 ft 1 kts 98°
2026-04-19 03:00 49.49607 11.07552 1025 ft 0 kts 98°
2026-04-19 03:02 49.49607 11.07555 1025 ft 1 kts 98°
2026-04-19 03:02 49.49606 11.07567 1024 ft 1 kts 98°
2026-04-19 03:02 49.49602 11.07600 1026 ft 6 kts 98°
2026-04-19 03:03 49.49596 11.07668 1026 ft 6 kts 98°
2026-04-19 03:03 49.49591 11.07727 1027 ft 2 kts 94°
2026-04-19 03:03 49.49599 11.07754 1027 ft 4 kts 48°
2026-04-19 03:03 49.49635 11.07769 1025 ft 6 kts
2026-04-19 03:04 49.49652 11.07813 1028 ft 5 kts 89°
2026-04-19 03:04 49.49646 11.07868 1028 ft 6 kts 101°
2026-04-19 03:04 49.49640 11.07927 1028 ft 6 kts 98°
2026-04-19 03:04 49.49634 11.07987 1029 ft 7 kts 98°
2026-04-19 03:05 49.49623 11.08104 1030 ft 14 kts 98°
2026-04-19 03:05 49.49608 11.08254 1031 ft 14 kts 98°
2026-04-19 03:05 49.49601 11.08326 1032 ft 6 kts 98°
2026-04-19 03:05 49.49611 11.08377 1033 ft 6 kts 53°
2026-04-19 03:06 49.49615 11.08441 1034 ft 8 kts 99°
2026-04-19 03:06 49.49604 11.08542 1035 ft 12 kts 98°
2026-04-19 03:06 49.49590 11.08688 1037 ft 16 kts 98°
2026-04-19 03:06 49.49570 11.08886 1038 ft 20 kts 98°
2026-04-19 03:07 49.49550 11.09094 1041 ft 19 kts 98°
2026-04-19 03:07 49.49531 11.09285 1044 ft 16 kts 98°
2026-04-19 03:07 49.49554 11.09414 1047 ft 12 kts 51°
2026-04-19 03:07 49.49599 11.09505 1050 ft 10 kts 53°
2026-04-19 03:08 49.49638 11.09573 1052 ft 8 kts 27°
2026-04-19 03:08 49.49687 11.09578 1053 ft 7 kts 352°
2026-04-19 03:08 49.49701 11.09513 1052 ft 9 kts 277°
2026-04-19 03:08 49.49739 11.09128 1046 ft 77 kts 278°
2026-04-19 03:09 49.49856 11.07937 1030 ft 146 kts 278°
2026-04-19 03:09 49.50026 11.06276 1477 ft 158 kts 279°
2026-04-19 03:09 49.50194 11.04604 2206 ft 158 kts 278°
2026-04-19 03:09 49.50349 11.02935 2908 ft 157 kts 278°
2026-04-19 03:10 49.50497 11.01281 3592 ft 156 kts 277°
2026-04-19 03:10 49.50655 10.99551 4043 ft 173 kts 277°
2026-04-19 03:10 49.50844 10.97631 4484 ft 190 kts 278°
2026-04-19 03:10 49.51050 10.95509 4844 ft 213 kts 277°
2026-04-19 03:11 49.51276 10.93129 5187 ft 240 kts 278°
2026-04-19 03:11 49.51541 10.90484 5810 ft 259 kts 278°
2026-04-19 03:11 49.51823 10.87688 6674 ft 266 kts 278°
2026-04-19 03:11 49.52108 10.84868 7645 ft 269 kts 278°
2026-04-19 03:12 49.52392 10.82014 8649 ft 270 kts 277°
2026-04-19 03:12 49.52668 10.79145 9669 ft 273 kts 276°
2026-04-19 03:12 49.52941 10.76226 10466 ft 282 kts 276°
2026-04-19 03:12 49.53215 10.73112 10843 ft 304 kts 276°
2026-04-19 03:13 49.53505 10.69780 11259 ft 323 kts 276°
2026-04-19 03:13 49.53822 10.66387 12057 ft 326 kts 277°
2026-04-19 03:13 49.54161 10.62914 12901 ft 329 kts 277°
2026-04-19 03:13 49.54505 10.59413 13733 ft 333 kts 277°
2026-04-19 03:14 49.54893 10.55883 14468 ft 337 kts 282°
2026-04-19 03:14 49.55680 10.52450 15176 ft 343 kts 293°
2026-04-19 03:14 49.56929 10.49287 15883 ft 349 kts 303°
2026-04-19 03:14 49.58356 10.46242 16597 ft 352 kts 302°
2026-04-19 03:15 49.59792 10.43159 17304 ft 356 kts 302°
2026-04-19 03:15 49.61219 10.40091 17989 ft 359 kts 302°
2026-04-19 03:15 49.62682 10.36939 18630 ft 363 kts 302°
2026-04-19 03:15 49.64152 10.33759 19238 ft 366 kts 302°
2026-04-19 03:16 49.65635 10.30544 19820 ft 369 kts 302°
2026-04-19 03:16 49.67121 10.27315 20025 ft 369 kts 301°
2026-04-19 03:16 49.68625 10.24043 20076 ft 379 kts 302°
2026-04-19 03:16 49.70162 10.20695 20081 ft 383 kts 302°
2026-04-19 03:17 49.71705 10.17337 20081 ft 384 kts 302°
2026-04-19 03:17 49.73252 10.13972 20076 ft 384 kts 302°
2026-04-19 03:17 49.74796 10.10610 20076 ft 384 kts 302°
2026-04-19 03:17 49.76323 10.07283 20085 ft 385 kts 301°
2026-04-19 03:18 49.77876 10.03892 20075 ft 386 kts 301°
2026-04-19 03:18 49.79428 10.00498 20024 ft 384 kts 301°
2026-04-19 03:18 49.80955 9.97166 19785 ft 376 kts 301°
2026-04-19 03:18 49.82462 9.93878 19532 ft 373 kts 301°
2026-04-19 03:19 49.83952 9.90611 19286 ft 371 kts 301°
2026-04-19 03:19 49.85436 9.87342 19041 ft 367 kts 301°
2026-04-19 03:19 49.86894 9.84128 18632 ft 362 kts 301°
2026-04-19 03:19 49.88310 9.80991 18169 ft 358 kts 300°
2026-04-19 03:20 49.89494 9.77644 17659 ft 351 kts 290°
2026-04-19 03:20 49.90411 9.74169 17154 ft 346 kts 289°
2026-04-19 03:20 49.91318 9.70723 16652 ft 343 kts 290°
2026-04-19 03:20 49.92177 9.67291 16157 ft 339 kts 285°
2026-04-19 03:21 49.92619 9.63732 15648 ft 335 kts 273°
2026-04-19 03:21 49.92555 9.60144 15134 ft 332 kts 262°
2026-04-19 03:21 49.92006 9.56684 14627 ft 331 kts 250°
2026-04-19 03:21 49.91145 9.53430 14115 ft 330 kts 248°
2026-04-19 03:22 49.90269 9.50156 13553 ft 328 kts 248°
2026-04-19 03:22 49.89401 9.46896 13026 ft 326 kts 248°
2026-04-19 03:22 49.88545 9.43661 12498 ft 323 kts 248°
2026-04-19 03:22 49.87700 9.40447 11974 ft 321 kts 248°
2026-04-19 03:23 49.87017 9.37168 11438 ft 319 kts 258°
2026-04-19 03:23 49.86820 9.33756 10926 ft 319 kts 271°
2026-04-19 03:23 49.87127 9.30304 10824 ft 328 kts 282°
2026-04-19 03:23 49.87756 9.26944 10750 ft 329 kts 285°
2026-04-19 03:24 49.88393 9.23618 10646 ft 314 kts 284°
2026-04-19 03:24 49.89000 9.20444 10521 ft 300 kts 284°
2026-04-19 03:24 49.89578 9.17420 10384 ft 284 kts 284°
2026-04-19 03:24 49.90127 9.14546 10005 ft 274 kts 284°
2026-04-19 03:25 49.90661 9.11729 9410 ft 270 kts 284°
2026-04-19 03:25 49.91317 9.09008 8778 ft 272 kts 298°
2026-04-19 03:25 49.92655 9.06945 8161 ft 277 kts 326°
2026-04-19 03:25 49.94469 9.05907 7516 ft 280 kts 342°
2026-04-19 03:26 49.96366 9.05198 6910 ft 279 kts 344°
2026-04-19 03:26 49.98212 9.04531 6425 ft 273 kts 344°
2026-04-19 03:26 50.00037 9.03867 5909 ft 267 kts 344°
2026-04-19 03:26 50.01811 9.03206 5553 ft 255 kts 344°
2026-04-19 03:27 50.03472 9.02581 5395 ft 236 kts 344°
2026-04-19 03:27 50.05021 9.01998 5269 ft 225 kts 344°
2026-04-19 03:27 50.06534 9.01422 5143 ft 223 kts 344°
2026-04-19 03:27 50.08039 9.00832 5023 ft 223 kts 344°
2026-04-19 03:28 50.09469 8.99975 4903 ft 220 kts 322°
2026-04-19 03:28 50.10431 8.98174 4772 ft 217 kts 298°
2026-04-19 03:28 50.11124 8.96090 4640 ft 217 kts 294°
2026-04-19 03:28 50.11685 8.93956 4511 ft 216 kts 281°
2026-04-19 03:29 50.11735 8.91662 4382 ft 208 kts 258°
2026-04-19 03:29 50.11310 8.89560 4246 ft 200 kts 248°
2026-04-19 03:29 50.10844 8.87577 4199 ft 188 kts 248°
2026-04-19 03:29 50.10402 8.85691 3948 ft 185 kts 248°
2026-04-19 03:30 50.10034 8.83773 3698 ft 184 kts 259°
2026-04-19 03:30 50.09815 8.81839 3497 ft 180 kts 258°
2026-04-19 03:30 50.09534 8.79955 3261 ft 178 kts 250°
2026-04-19 03:30 50.09146 8.78173 3072 ft 174 kts 250°
2026-04-19 03:31 50.08732 8.76408 2839 ft 172 kts 248°
2026-04-19 03:31 50.08315 8.74700 2627 ft 164 kts 248°
2026-04-19 03:31 50.07917 8.73077 2399 ft 157 kts 248°
2026-04-19 03:31 50.07536 8.71535 2179 ft 146 kts 249°
2026-04-19 03:32 50.07201 8.70083 1974 ft 141 kts 250°
2026-04-19 03:32 50.06877 8.68660 1742 ft 138 kts 249°
2026-04-19 03:32 50.06545 8.67271 1551 ft 137 kts 249°
2026-04-19 03:32 50.06220 8.65890 1384 ft 135 kts 251°
2026-04-19 03:33 50.05907 8.64548 1212 ft 133 kts 249°
2026-04-19 03:33 50.05586 8.63206 1012 ft 131 kts 251°
2026-04-19 03:33 50.05264 8.61875 836 ft 131 kts 252°
2026-04-19 03:33 50.04954 8.60535 659 ft 132 kts 252°
2026-04-19 03:34 50.04633 8.59192 487 ft 133 kts 251°
2026-04-19 03:34 50.04313 8.57867 366 ft 121 kts 250°
2026-04-19 03:34 50.04066 8.56825 363 ft 78 kts 250°
2026-04-19 03:34 50.03927 8.56247 355 ft 45 kts 249°
2026-04-19 03:35 50.03888 8.55843 350 ft 33 kts 277°
2026-04-19 03:35 50.03905 8.55686 348 ft 8 kts 279°
2026-04-19 03:35 50.03946 8.55635 351 ft 9 kts 355°
2026-04-19 03:35 50.03986 8.55687 349 ft 8 kts 69°
2026-04-19 03:36 50.04005 8.55766 352 ft 8 kts 70°
2026-04-19 03:36 50.04024 8.55849 354 ft 8 kts 70°
2026-04-19 03:36 50.04045 8.55936 357 ft 9 kts 69°
2026-04-19 03:36 50.04088 8.55973 352 ft 7 kts 350°
2026-04-19 03:37 50.04138 8.55946 355 ft 9 kts 340°
2026-04-19 03:37 50.04203 8.55910 358 ft 8 kts 344°
2026-04-19 03:37 50.04249 8.55950 356 ft 8 kts 38°
2026-04-19 03:37 50.04305 8.55952 358 ft 10 kts 341°
2026-04-19 03:38 50.04370 8.55916 360 ft 10 kts 343°
2026-04-19 03:38 50.04439 8.55913 361 ft 10 kts 15°
2026-04-19 03:38 50.04513 8.55951 363 ft 12 kts 18°
2026-04-19 03:38 50.04557 8.55977 356 ft 5 kts 32°
2026-04-19 03:39 50.04590 8.55976 356 ft 6 kts 348°
2026-04-19 03:39 50.04630 8.55952 359 ft 7 kts 339°
2026-04-19 03:39 50.04649 8.55941 361 ft 0 kts 339°